Weather History for Blair, NE

Change the Weather History Date:

Monday, June 17, 2013

  Actual Average (KOMA) Record (KOMA)
Temperature  
Mean Temperature 74 °F 73 °F  
Max Temperature 86 °F 84 °F 100 °F (1918)
Min Temperature 62 °F 62 °F 42 °F (1974)
Degree Days  
Heating Degree Days 0 0  
Month to date heating degree days 15  
Since 1 June heating degree days 15  
Since 1 July heating degree days 6165  
Cooling Degree Days 9 8  
Month to date cooling degree days 103  
Year to date cooling degree days 185  
Since 1 June cooling degree days 103  
Growing Degree Days 24 (Base 50)    
Moisture  
Dew Point 56 °F    
Average Humidity 53    
Maximum Humidity 82    
Minimum Humidity 31    
Precipitation  
Precipitation 0.00 in 0.13 in 5.02 in (1875)
Month to date precipitation 2.51  
Year to date precipitation 13.79  
Snow  
Snow 0.00 in 0.00 in - ()
Month to date snowfall 0.0  
Since 1 July snowfall 26.4  
Snow Depth -    
Sea Level Pressure  
Sea Level Pressure 30.00 in    
Wind  
Wind Speed 6 mph (NNW)    
Max Wind Speed 13 mph    
Max Gust Speed 18 mph    
Visibility 10 miles    
Events      
T = Trace of Precipitation, MM = Missing Value Source: NWS Daily Summary

Daily Weather History Graph

Daily Weather History Graph

Search for Another Location

Airport:

Trip Planner

Search our weather history database for the weather conditions in past years. The results will help you decide how hot, cold, wet, or windy it might be!

Date:

Astronomy

Jun. 17, 2013 Rise Set
Actual Time 5:50 AM CDT 9:00 PM CDT
Civil Twilight 5:16 AM CDT 9:34 PM CDT
Nautical Twilight 4:32 AM CDT 10:18 PM CDT
Astronomical Twilight 3:40 AM CDT 11:10 PM CDT
Moon 2:37 PM CDT (6/17) 1:30 AM CDT (6/17)
Length of Visible Light 16h 18m
Length of Day
15h 10m
First Quarter, 60% of the Moon is Illuminated
Jun 17
First Quarter
Jun 23
Full
Jun 29
Last Quarter
Jul 8
New
Jul 15
First Quarter

Hourly Weather History & Observations

Time (CDT) Temp. Heat Index Dew Point Humidity Pressure Visibility Wind Dir Wind Speed Gust Speed Precip Events Conditions
12:15 AM 70.0 °F - 58.8 °F 68% 29.98 in 10.0 mi North 8.1 mph - N/A   Clear
12:35 AM 69.1 °F - 58.5 °F 69% 29.98 in 10.0 mi North 8.1 mph - N/A   Clear
12:55 AM 69.1 °F - 58.3 °F 68% 29.97 in 10.0 mi North 6.9 mph - N/A   Clear
1:15 AM 68.7 °F - 58.3 °F 69% 29.96 in 10.0 mi North 9.2 mph - N/A   Clear
1:35 AM 68.9 °F - 57.9 °F 68% 29.97 in 10.0 mi NNE 6.9 mph - N/A   Clear
1:55 AM 68.7 °F - 58.1 °F 69% 29.98 in 10.0 mi NNE 4.6 mph - N/A   Clear
2:15 AM 67.6 °F - 58.3 °F 72% 29.98 in 10.0 mi Calm Calm - N/A   Clear
2:35 AM 67.8 °F - 58.1 °F 71% 29.97 in 10.0 mi Calm Calm - N/A   Clear
2:55 AM 67.3 °F - 57.9 °F 72% 29.97 in 10.0 mi Calm Calm - N/A   Clear
3:15 AM 66.6 °F - 57.7 °F 73% 29.97 in 10.0 mi North 4.6 mph - N/A   Clear
3:35 AM 66.6 °F - 57.2 °F 72% 29.96 in 10.0 mi NNE 6.9 mph - N/A   Clear
3:55 AM 66.2 °F - 56.7 °F 71% 29.96 in 10.0 mi NNE 9.2 mph - N/A   Clear
4:15 AM 66.2 °F - 56.3 °F 70% 29.96 in 10.0 mi NNE 8.1 mph - N/A   Clear
4:35 AM 65.1 °F - 56.8 °F 75% 29.96 in 10.0 mi NNE 8.1 mph - N/A   Clear
4:55 AM 64.6 °F - 56.7 °F 75% 29.96 in 10.0 mi North 8.1 mph - N/A   Clear
5:15 AM 64.8 °F - 56.7 °F 75% 29.96 in 10.0 mi NNE 6.9 mph - N/A   Clear
5:35 AM 64.2 °F - 56.7 °F 76% 29.97 in 10.0 mi North 6.9 mph - N/A   Clear
5:55 AM 63.7 °F - 56.5 °F 77% 29.99 in 10.0 mi North 4.6 mph - N/A   Clear
6:15 AM 62.4 °F - 57.0 °F 82% 30.01 in 10.0 mi SW 3.5 mph - N/A   Clear
6:35 AM 63.3 °F - 56.5 °F 78% 30.01 in 10.0 mi Calm Calm - N/A   Clear
6:55 AM 63.5 °F - 56.5 °F 78% 30.02 in 10.0 mi NW 3.5 mph - N/A   Clear
7:15 AM 64.0 °F - 56.8 °F 77% 30.01 in 10.0 mi NNW 6.9 mph - N/A   Clear
7:35 AM 67.5 °F - 57.0 °F 69% 30.02 in 10.0 mi North 8.1 mph - N/A   Clear
7:55 AM 69.1 °F - 57.6 °F 67% 30.02 in 10.0 mi North 4.6 mph - N/A   Clear
8:15 AM 70.7 °F - 57.6 °F 63% 30.03 in 10.0 mi North 5.8 mph - N/A   Clear
8:35 AM 72.5 °F - 56.3 °F 57% 30.03 in 10.0 mi North 4.6 mph - N/A   Clear
8:55 AM 73.4 °F - 57.9 °F 58% 30.03 in 10.0 mi NNW 4.6 mph - N/A   Clear
9:15 AM 74.3 °F - 56.7 °F 54% 30.04 in 10.0 mi North 4.6 mph - N/A   Clear
9:35 AM 74.7 °F - 56.1 °F 52% 30.04 in 10.0 mi NNW 3.5 mph - N/A   Clear
9:55 AM 75.0 °F - 55.4 °F 50% 30.04 in 10.0 mi North 8.1 mph - N/A   Clear
10:15 AM 75.4 °F - 55.6 °F 50% 30.04 in 10.0 mi NNW 5.8 mph - N/A   Clear
10:35 AM 75.9 °F - 55.2 °F 49% 30.03 in 10.0 mi North 4.6 mph - N/A   Clear
10:55 AM 77.0 °F - 55.8 °F 48% 30.03 in 10.0 mi North 6.9 mph - N/A   Clear
11:15 AM 77.9 °F - 57.2 °F 49% 30.04 in 10.0 mi North 5.8 mph - N/A   Clear
11:35 AM 78.1 °F - 55.9 °F 46% 30.04 in 10.0 mi NNW 3.5 mph - N/A   Clear
11:55 AM 79.0 °F - 56.1 °F 45% 30.04 in 10.0 mi Calm Calm - N/A   Clear
12:15 PM 79.3 °F - 55.8 °F 44% 30.04 in 10.0 mi WNW 5.8 mph - N/A   Clear
12:35 PM 79.9 °F - 56.1 °F 44% 30.04 in 10.0 mi North 3.5 mph - N/A   Clear
12:55 PM 80.8 °F 80.7 °F 55.8 °F 42% 30.04 in 10.0 mi North 3.5 mph - N/A   Clear
1:15 PM 81.7 °F 81.1 °F 54.7 °F 39% 30.03 in 10.0 mi NNW 5.8 mph - N/A   Clear
1:35 PM 82.6 °F 81.6 °F 53.8 °F 37% 30.03 in 10.0 mi West 4.6 mph - N/A   Clear
1:55 PM 83.3 °F 82.0 °F 53.2 °F 35% 30.02 in 10.0 mi NW 5.8 mph - N/A   Clear
2:15 PM 83.7 °F - 52.2 °F 34% 30.01 in 10.0 mi SW 8.1 mph - N/A   Clear
2:35 PM 84.4 °F - 52.3 °F 33% 30.01 in 10.0 mi NW 5.8 mph - N/A   Clear
2:55 PM 84.6 °F - 51.3 °F 32% 30.00 in 10.0 mi WSW 8.1 mph - N/A   Clear
3:15 PM 84.9 °F - 51.4 °F 31% 30.00 in 10.0 mi NNW 4.6 mph - N/A   Clear
3:35 PM 85.8 °F - 52.2 °F 31% 30.00 in 10.0 mi Calm Calm - N/A   Scattered Clouds
3:55 PM 85.5 °F - 52.3 °F 32% 30.00 in 10.0 mi WNW 8.1 mph 16.1 mph N/A   Scattered Clouds
4:15 PM 84.9 °F - 52.7 °F 33% 29.99 in 10.0 mi NW 8.1 mph - N/A   Scattered Clouds
4:35 PM 86.0 °F - 52.9 °F 32% 29.98 in 10.0 mi NW 12.7 mph 18.4 mph N/A   Scattered Clouds
4:55 PM 84.4 °F 83.1 °F 54.5 °F 36% 29.98 in 7.0 mi NNW 5.8 mph - N/A   Scattered Clouds
5:15 PM 85.3 °F 84.3 °F 56.8 °F 38% 29.98 in 10.0 mi NNW 8.1 mph 16.1 mph N/A   Scattered Clouds
5:35 PM 85.1 °F 83.8 °F 55.0 °F 36% 29.97 in 10.0 mi NNW 9.2 mph - N/A   Clear
5:55 PM 84.6 °F 83.5 °F 56.3 °F 38% 29.96 in 10.0 mi North 9.2 mph - N/A   Clear
6:15 PM 84.4 °F 83.2 °F 55.8 °F 37% 29.96 in 10.0 mi NNW 6.9 mph - N/A   Clear
6:35 PM 84.2 °F 82.8 °F 54.1 °F 35% 29.97 in 10.0 mi NNW 9.2 mph - N/A   Clear
6:55 PM 83.3 °F 82.2 °F 54.5 °F 37% 29.97 in 10.0 mi North 11.5 mph - N/A   Clear
7:15 PM 82.4 °F 81.4 °F 53.8 °F 37% 29.97 in 10.0 mi North 8.1 mph - N/A   Clear
7:35 PM 81.9 °F 81.4 °F 55.8 °F 41% 29.97 in 10.0 mi North 8.1 mph - N/A   Clear
7:55 PM 80.6 °F 80.4 °F 55.0 °F 41% 29.96 in 10.0 mi North 6.9 mph - N/A   Clear
8:15 PM 79.5 °F - 55.4 °F 43% 29.97 in 10.0 mi North 6.9 mph - N/A   Clear
8:35 PM 78.1 °F - 55.2 °F 45% 29.97 in 10.0 mi NNW 5.8 mph - N/A   Clear
8:55 PM 77.2 °F - 54.5 °F 45% 29.98 in 10.0 mi North 6.9 mph - N/A   Clear
9:15 PM 75.6 °F - 54.1 °F 47% 29.98 in 10.0 mi NNW 5.8 mph - N/A   Clear
9:35 PM 74.8 °F - 53.6 °F 47% 29.98 in 10.0 mi North 8.1 mph - N/A   Clear
9:55 PM 74.5 °F - 53.2 °F 47% 30.00 in 10.0 mi North 9.2 mph - N/A   Clear
10:15 PM 73.9 °F - 53.8 °F 49% 30.02 in 10.0 mi North 9.2 mph - N/A   Clear
10:35 PM 72.9 °F - 53.8 °F 51% 30.02 in 10.0 mi North 8.1 mph - N/A   Clear
10:55 PM 72.0 °F - 53.8 °F 53% 30.02 in 10.0 mi North 8.1 mph - N/A   Clear
11:15 PM 71.2 °F - 53.8 °F 54% 30.03 in 10.0 mi North 8.1 mph - N/A   Clear
11:35 PM 70.0 °F - 54.3 °F 57% 30.02 in 10.0 mi North 6.9 mph - N/A   Clear
11:55 PM 69.3 °F - 54.3 °F 59% 30.02 in 10.0 mi North 6.9 mph - N/A   Clear